[[{"header":{"parameterUnit":"m.s-1","parameterCategory":2,"la1":30.2991,"la2":30.254,"lo1":-89.0895,"lo2":-89.0444,"dy":0.0017,"dx":0.0017,"nx":28,"ny":28,"refTime":"2023-11-03T21:00:00:Z","depth":"0","parameterNumber":2,"parameterNumberName":"U-component_of_CURRENTS"},"data":[0,0,0,0,0,0,0,0,0,0,0,0,0,0,0,0,0,0,0,0,0,0,0,0,0,0,0,0,0,0,0,0,0,0,0,0,0,0,0,0,0,0,0,0,0,0,0,0,0,0,0,0,0,0,0,0,0,0,0.298,0.298,0,0.2948,0.2947,0.2946,0.2921,0.2921,0.2921,0.2921,0.2876,0.2875,0.2874,0,0,0,0,0,0,0,0,0,0,0,0,0,0.2989,0.2989,0.298,0.298,0.298,0.2948,0.2947,0.2946,0.2921,0.2921,0.2921,0.2921,0.2876,0.2875,0.2873,0,0,0,0,0,0,0,0,0,0,0,0,0,0.297,0.2989,0.298,0.2966,0.2965,0.2948,0.2947,0.2946,0.2921,0.2921,0.2921,0.2921,0.2877,0.2875,0.2873,0.2858,0,0,0.2867,0.2866,0,0,0,0,0,0,0,0,0.2972,0.297,0.2968,0.2967,0.2966,0.2942,0.2934,0.2917,0.2921,0.2933,0.2921,0.2921,0.2899,0.2895,0.2884,0.2856,0.2854,0.2867,0.2866,0.2865,0.2865,0,0,0,0,0,0,0,0.2973,0.2971,0.2963,0.2968,0.2967,0.2951,0.2949,0.293,0.2913,0.2932,0.2931,0.2934,0.2898,0.2886,0.2883,0.2853,0.2867,0.2865,0.2864,0.2863,0.286,0.2861,0,0,0,0,0,0,0.2986,0.2972,0.2964,0.2962,0.2973,0.2952,0.2948,0.2946,0.2913,0.2909,0.2934,0.2933,0.2889,0.2885,0.2881,0.2915,0.2865,0.2863,0.2862,0.2859,0.286,0.2861,0,0,0,0,0,0,0.2986,0.2985,0.2966,0.297,0.2967,0.2952,0.2949,0.2945,0.2942,0.2915,0.291,0.2935,0.2889,0.2884,0.2878,0.2911,0.2862,0.2861,0.2857,0.2859,0.2861,0.2948,0,0,0,0,0,0,0.2987,0.2985,0.2985,0.2971,0.2967,0.2964,0.2949,0.2945,0.2944,0.2943,0.2915,0.291,0.2889,0.2881,0.2876,0.2907,0.2859,0.2856,0.2858,0.286,0.2943,0.2952,0.2959,0,0,0,0,0,0.2987,0.2988,0.2985,0.2985,0.2968,0.2965,0.2961,0.2948,0.2945,0.2945,0.2931,0.2911,0.2891,0.288,0.2874,0.2905,0.2855,0.2858,0.286,0.294,0.295,0.2959,0,0,0,0,0,0,0.2979,0.2985,0.2982,0.2981,0.2979,0.2962,0.296,0.2956,0.2943,0.2942,0.2917,0.2912,0.2923,0.2898,0.2887,0.291,0.2873,0.2874,0.2936,0.2945,0.2953,0.2985,0.2858,0,0,0,0,0,0.2982,0.2988,0.2988,0.2984,0.2988,0.2977,0.2973,0.2967,0.2957,0.2952,0.2935,0.2923,0.2926,0.2922,0.291,0.2916,0.2932,0.2934,0.2942,0.2949,0.2971,0.3027,0.3043,0.2869,0.2869,0.2869,0,0,0.2974,0.298,0.298,0.2984,0.2979,0.2989,0.2974,0.2974,0.2986,0.2949,0.2955,0.2947,0.2933,0.2947,0.2949,0.2931,0.3006,0.2952,0.2958,0.2977,0.3031,0.3049,0.3064,0.2871,0.287,0.287,0,0,0.2965,0.2972,0.2976,0.2985,0.2991,0.2995,0.3001,0.2995,0.2999,0.3002,0.2994,0.3013,0.2987,0.3005,0.3007,0.3051,0.3047,0.304,0.3107,0.3161,0.3176,0.319,0.3236,0.3253,0.3044,0.3044,0.3044,0,0.2956,0.2965,0.2974,0.2986,0.3,0.3004,0.3017,0.3024,0.3017,0.304,0.3013,0.3041,0.3025,0.3083,0.3099,0.3074,0.3097,0.3072,0.3175,0.3188,0.3201,0.3244,0.3262,0.3048,0.3048,0.3047,0.3047,0,0.2951,0.2966,0.2971,0.2996,0.3012,0.3024,0.3047,0.3071,0.3079,0.309,0.314,0.313,0.3156,0.3155,0.3138,0.3227,0.3212,0.3181,0.3156,0.3225,0.3265,0.3282,0.3055,0.3053,0.3052,0.3051,0,0,0.291,0.2961,0.2962,0.2983,0.3024,0.3033,0.3086,0.3136,0.318,0.319,0.325,0.3273,0.3284,0.3289,0.3283,0.333,0.3436,0.3299,0.3299,0.3356,0.356,0.3501,0.3514,0.3423,0.3427,0.3429,0.3554,0,0.2904,0.2933,0.2966,0.3,0.3021,0.3073,0.3119,0.317,0.3213,0.327,0.3312,0.335,0.333,0.3349,0.3402,0.3425,0.3484,0.3405,0.3475,0.3478,0.3427,0.3533,0.3364,0.3457,0.357,0.3573,0.3575,0,0.2885,0.2915,0.2949,0.302,0.3034,0.3063,0.3163,0.3205,0.3309,0.3339,0.3417,0.3443,0.3538,0.3488,0.361,0.356,0.3579,0.3591,0.3595,0.3526,0.3452,0.3405,0.3483,0.3423,0.3601,0.3599,0.3597,0,0.2844,0.2901,0.2934,0.2955,0.3035,0.3077,0.3128,0.3229,0.3287,0.3396,0.3451,0.3552,0.3605,0.3666,0.3711,0.3669,0.3828,0.3765,0.3738,0.3733,0.3597,0.3575,0.3635,0.3861,0.3861,0.386,0.386,0,0.2826,0.285,0.2919,0.2935,0.299,0.3052,0.3129,0.32,0.3313,0.3386,0.3484,0.3561,0.3653,0.3751,0.3769,0.3827,0.3885,0.3789,0.3778,0.362,0.3599,0.3542,0.35,0.3865,0.3864,0.3863,0.3862,0,0.2776,0.2821,0.2863,0.2945,0.2971,0.301,0.3122,0.3175,0.3293,0.3399,0.3442,0.3603,0.3727,0.3821,0.3923,0.3897,0.3844,0.3947,0.3756,0.372,0.3597,0.3563,0.3492,0.3382,0.3936,0.3936,0.3936,0,0.2754,0.277,0.285,0.2872,0.2911,0.2978,0.3019,0.3144,0.3204,0.3411,0.3452,0.3637,0.3727,0.3885,0.3891,0.3949,0.3845,0.3806,0.369,0.3608,0.3564,0.343,0.3332,0.3547,0.3544,0.3541,0.3538,0,0.2717,0.2747,0.2782,0.2825,0.2866,0.2913,0.2986,0.3035,0.3182,0.328,0.342,0.3524,0.3697,0.3686,0.3776,0.3781,0.3617,0.3746,0.3714,0.3326,0.3132,0.3011,0.3451,0.3512,0.3515,0.3517,0.3518,0.3519,0.2681,0.2696,0.2736,0.2765,0.2805,0.2826,0.2819,0.2902,0.2983,0.3076,0.3269,0.3347,0.3461,0.3563,0.3552,0.3469,0.3453,0.3352,0.3341,0.3232,0.305,0.3439,0.3448,0.3451,0.3452,0.3454,0.3455,0,0.2619,0.2639,0.2668,0.2685,0.2669,0.2728,0.2766,0.2729,0.2744,0.2879,0.2964,0.3095,0.3112,0.3207,0.3215,0.3089,0.2925,0.3016,0.2794,0.2733,0.3138,0.3045,0.2902,0.2902,0.2902,0.2902,0.2902,0.2902,0.2588,0.2579,0.2587,0.2533,0.2535,0.2464,0.2451,0.2425,0.2474,0.2507,0.2572,0.2692,0.296,0.3047,0.2972,0.2883,0.2655,0.2511,0.2538,0.2843,0.2873,0.2902,0.2808,0.2617,0.2617,0.1991,0.1986,0.1983]},{"header":{"parameterUnit":"m.s-1","parameterCategory":2,"la1":30.2991,"la2":30.254,"lo1":-89.0895,"lo2":-89.0444,"dy":0.0017,"dx":0.0017,"nx":28,"ny":28,"refTime":"2023-11-03T21:00:00:Z","depth":"0","parameterNumber":3,"parameterNumberName":"V-component_of_CURRENTS"},"data":[0,0,0,0,0,0,0,0,0,0,0,0,0,0,0,0,0,0,0,0,0,0,0,0,0,0,0,0,0,0,0,0,0,0,0,0,0,0,0,0,0,0,0,0,0,0,0,0,0,0,0,0,0,0,0,0,0,0,-0.0268,-0.0268,0,-0.0276,-0.0276,-0.0276,-0.0292,-0.0292,-0.0292,-0.0292,-0.0356,-0.0357,-0.0359,0,0,0,0,0,0,0,0,0,0,0,0,0,-0.0297,-0.0296,-0.0268,-0.0268,-0.0268,-0.0276,-0.0276,-0.0276,-0.0292,-0.0292,-0.0292,-0.0292,-0.0355,-0.0357,-0.0359,0,0,0,0,0,0,0,0,0,0,0,0,0,-0.0295,-0.0296,-0.0268,-0.0274,-0.0275,-0.0276,-0.0276,-0.0276,-0.0291,-0.0292,-0.0292,-0.0292,-0.0355,-0.0357,-0.0359,-0.0373,0,0,-0.0367,-0.0368,0,0,0,0,0,0,0,0,-0.0295,-0.0294,-0.0274,-0.0274,-0.0274,-0.028,-0.0309,-0.0311,-0.0291,-0.0288,-0.0292,-0.0292,-0.0334,-0.0338,-0.0342,-0.0376,-0.0379,-0.0367,-0.0369,-0.037,-0.0371,0,0,0,0,0,0,0,-0.0295,-0.0294,-0.0274,-0.0273,-0.0274,-0.0287,-0.0287,-0.031,-0.0314,-0.0288,-0.0289,-0.0285,-0.0335,-0.034,-0.0344,-0.038,-0.0367,-0.0369,-0.0371,-0.0372,-0.0429,-0.0429,0,0,0,0,0,0,-0.0287,-0.0294,-0.0274,-0.0274,-0.0282,-0.0286,-0.0286,-0.0281,-0.0312,-0.0316,-0.0285,-0.0286,-0.0336,-0.0341,-0.0347,-0.036,-0.037,-0.0372,-0.0374,-0.0429,-0.0429,-0.0429,0,0,0,0,0,0,-0.0287,-0.0285,-0.0273,-0.0282,-0.0281,-0.0285,-0.0279,-0.0281,-0.0281,-0.0309,-0.0314,-0.0283,-0.0336,-0.0343,-0.0358,-0.0363,-0.0373,-0.0376,-0.0429,-0.0429,-0.0429,-0.0391,0,0,0,0,0,0,-0.0288,-0.0285,-0.0281,-0.0281,-0.028,-0.0263,-0.0279,-0.0281,-0.0277,-0.0278,-0.0309,-0.0315,-0.0337,-0.0354,-0.0361,-0.0367,-0.0377,-0.0429,-0.0429,-0.0429,-0.0392,-0.0389,-0.0387,0,0,0,0,0,-0.0289,-0.0272,-0.028,-0.0278,-0.0273,-0.0262,-0.0263,-0.0268,-0.0277,-0.0271,-0.0292,-0.0314,-0.036,-0.0356,-0.0364,-0.037,-0.0429,-0.0429,-0.0429,-0.0393,-0.039,-0.0387,0,0,0,0,0,0,-0.0273,-0.0272,-0.0281,-0.0263,-0.0261,-0.0263,-0.0253,-0.0263,-0.0275,-0.0278,-0.031,-0.0317,-0.0334,-0.0356,-0.0351,-0.0387,-0.0399,-0.0401,-0.037,-0.0367,-0.0365,-0.0342,-0.038,0,0,0,0,0,-0.027,-0.0261,-0.0263,-0.0247,-0.0243,-0.0251,-0.0248,-0.0254,-0.0262,-0.0267,-0.0289,-0.0316,-0.0341,-0.0355,-0.0377,-0.0395,-0.041,-0.0406,-0.0403,-0.0401,-0.0388,-0.0422,-0.0422,-0.0429,-0.0429,-0.0429,0,0,-0.0257,-0.0255,-0.025,-0.0244,-0.0242,-0.0229,-0.0249,-0.0238,-0.0233,-0.0273,-0.0274,-0.0306,-0.0343,-0.0361,-0.0371,-0.0379,-0.0406,-0.0401,-0.0399,-0.0387,-0.0422,-0.0422,-0.0421,-0.0429,-0.0429,-0.0429,0,0,-0.0221,-0.0227,-0.0208,-0.0205,-0.02,-0.0207,-0.0202,-0.0206,-0.0213,-0.022,-0.0253,-0.0284,-0.0314,-0.0345,-0.0365,-0.0364,-0.039,-0.0375,-0.0348,-0.0382,-0.0381,-0.0381,-0.0391,-0.0392,-0.0377,-0.0377,-0.0377,0,-0.0208,-0.0183,-0.0199,-0.0179,-0.0168,-0.0194,-0.0169,-0.018,-0.0192,-0.0196,-0.0212,-0.0267,-0.0307,-0.0335,-0.0339,-0.036,-0.037,-0.0356,-0.0378,-0.0378,-0.0379,-0.0389,-0.039,-0.0375,-0.0375,-0.0375,-0.0375,0,-0.0157,-0.0141,-0.0125,-0.0114,-0.0109,-0.0088,-0.0105,-0.0107,-0.0125,-0.0143,-0.0169,-0.0225,-0.0254,-0.0284,-0.0312,-0.0338,-0.0342,-0.0369,-0.0382,-0.0375,-0.0387,-0.0389,-0.0372,-0.0373,-0.0373,-0.0374,0,0,-0.011,-0.0094,-0.0086,-0.0069,-0.0072,-0.0056,-0.0053,-0.0053,-0.0041,-0.0086,-0.008,-0.0153,-0.0187,-0.0212,-0.0263,-0.0303,-0.0327,-0.0332,-0.0335,-0.0335,-0.0379,-0.0358,-0.0359,-0.0357,-0.0358,-0.0358,-0.0382,0,-0.0062,-0.0012,-0.0021,0.0026,0.0052,0.0028,0.0043,0.0031,0.0008,0.0003,-0.0073,-0.0091,-0.0159,-0.0174,-0.0227,-0.0295,-0.0332,-0.0317,-0.039,-0.0392,-0.037,-0.0361,-0.0334,-0.0351,-0.0384,-0.0384,-0.0385,0,-0.0001,0.0023,0.0078,0.0106,0.0117,0.0136,0.0157,0.0161,0.0131,0.0109,0.0062,0.0011,-0.0054,-0.0114,-0.0225,-0.0208,-0.0285,-0.0348,-0.0351,-0.0344,-0.0375,-0.0366,-0.0354,-0.0508,-0.0388,-0.0388,-0.0388,0,0.0056,0.0096,0.0143,0.0153,0.0177,0.02,0.021,0.0199,0.022,0.0175,0.0184,0.0092,0.007,-0.005,-0.0172,-0.0199,-0.0283,-0.034,-0.0394,-0.0393,-0.0389,-0.0387,-0.0529,-0.042,-0.042,-0.042,-0.042,0,0.0116,0.0156,0.0178,0.0207,0.0275,0.0263,0.0323,0.0313,0.0317,0.0365,0.0246,0.0271,0.0087,0.0019,-0.0126,-0.0243,-0.0247,-0.0376,-0.0398,-0.0374,-0.037,-0.052,-0.0619,-0.0421,-0.042,-0.042,-0.042,0,0.0173,0.0185,0.0245,0.0284,0.0306,0.0353,0.041,0.0451,0.0436,0.0496,0.0491,0.0418,0.0337,0.016,-0.0011,-0.0153,-0.0375,-0.0338,-0.0281,-0.0296,-0.0504,-0.0601,-0.0756,-0.0821,-0.0409,-0.0408,-0.0408,0,0.0205,0.0243,0.0309,0.0356,0.0379,0.0445,0.0501,0.051,0.0566,0.0608,0.0655,0.0595,0.0594,0.0347,0.0084,-0.0149,-0.0331,-0.0299,-0.0363,-0.0499,-0.0625,-0.0703,-0.0753,-0.0343,-0.0343,-0.0342,-0.0341,0,0.0268,0.0292,0.0342,0.0442,0.051,0.059,0.0673,0.0741,0.0782,0.0849,0.0944,0.095,0.0728,0.0523,0.0188,-0.0003,-0.0405,-0.0292,-0.0461,-0.0601,-0.0669,-0.0745,-0.0333,-0.0336,-0.0336,-0.0337,-0.0337,-0.0337,0.0321,0.0369,0.0443,0.0538,0.0622,0.0739,0.0822,0.0929,0.1061,0.1182,0.1176,0.1214,0.0886,0.0443,0.0177,-0.0319,-0.0355,-0.0488,-0.0596,-0.0664,-0.0728,-0.0283,-0.0296,-0.0296,-0.0296,-0.0297,-0.0297,0,0.0393,0.0448,0.0536,0.0655,0.0761,0.079,0.0945,0.1044,0.1228,0.1343,0.1433,0.1304,0.0898,0.0441,-0.0204,-0.0558,-0.0713,-0.0773,-0.0901,-0.094,-0.0564,-0.0562,-0.0598,-0.0598,-0.0597,-0.0597,-0.0597,-0.0597,0.0437,0.0534,0.0577,0.076,0.0845,0.0993,0.1089,0.1241,0.1361,0.1515,0.1549,0.1545,0.1215,0.0079,-0.0724,-0.0924,-0.1172,-0.1223,-0.1361,-0.1133,-0.1116,-0.11,-0.1122,-0.1274,-0.1275,-0.168,-0.1684,-0.1688]}],[{"header":{"parameterUnit":"m.s-1","parameterCategory":2,"la1":30.2991,"la2":30.254,"lo1":-89.0895,"lo2":-89.0444,"dy":0.0017,"dx":0.0017,"nx":28,"ny":28,"refTime":"2023-11-03T21:00:00:Z","depth":"2","parameterNumber":2,"parameterNumberName":"U-component_of_CURRENTS"},"data":[0,0,0,0,0,0,0,0,0,0,0,0,0,0,0,0,0,0,0,0,0,0,0,0,0,0,0,0,0,0,0,0,0,0,0,0,0,0,0,0,0,0,0,0,0,0,0,0,0,0,0,0,0,0,0,0,0,0,0.2628,0.2629,0,0.2635,0.2634,0.2634,0.2635,0.2635,0.2636,0.2636,0.2626,0.2625,0.2625,0,0,0,0,0,0,0,0,0,0,0,0,0,0.2602,0.2602,0.2628,0.2629,0.2629,0.2635,0.2634,0.2634,0.2635,0.2635,0.2636,0.2636,0.2626,0.2626,0.2625,0,0,0,0,0,0,0,0,0,0,0,0,0,0.2608,0.2602,0.2628,0.2633,0.2634,0.2635,0.2634,0.2634,0.2635,0.2635,0.2636,0.2636,0.2626,0.2626,0.2625,0.2612,0,0,0.2622,0.2622,0,0,0,0,0,0,0,0,0.2607,0.2608,0.2632,0.2633,0.2634,0.2638,0.2622,0.2627,0.2635,0.2631,0.2636,0.2636,0.263,0.2629,0.2625,0.2611,0.2611,0.2622,0.2622,0.2622,0.2621,0,0,0,0,0,0,0,0.2607,0.2608,0.2627,0.2632,0.2633,0.263,0.2631,0.2622,0.2625,0.2631,0.2632,0.2638,0.263,0.2625,0.2624,0.2611,0.2622,0.2622,0.2621,0.2621,0.265,0.2651,0,0,0,0,0,0,0.2614,0.2608,0.2627,0.2628,0.2625,0.263,0.2631,0.2633,0.2625,0.2626,0.2638,0.2638,0.2627,0.2625,0.2624,0.2672,0.2622,0.2621,0.262,0.2649,0.265,0.2651,0,0,0,0,0,0,0.2613,0.2615,0.2627,0.2621,0.2623,0.2631,0.2632,0.2633,0.2645,0.2632,0.2631,0.2653,0.2627,0.2625,0.2636,0.2669,0.262,0.262,0.2647,0.2649,0.2651,0.2727,0,0,0,0,0,0,0.2612,0.2615,0.2618,0.2621,0.2623,0.2641,0.2632,0.2633,0.2649,0.265,0.2644,0.2642,0.2627,0.2638,0.2636,0.2667,0.2619,0.2646,0.2648,0.265,0.2722,0.2731,0.2738,0,0,0,0,0,0.2611,0.2615,0.2618,0.2621,0.2627,0.2642,0.2642,0.2646,0.265,0.2658,0.2658,0.2643,0.2651,0.2638,0.2635,0.2667,0.2644,0.2647,0.265,0.2719,0.2729,0.2738,0,0,0,0,0,0,0.26,0.2616,0.2619,0.2626,0.264,0.2644,0.2654,0.2658,0.2663,0.2667,0.2653,0.2652,0.2676,0.2658,0.2644,0.2683,0.2648,0.265,0.2701,0.271,0.2718,0.2739,0.2619,0,0,0,0,0,0.26,0.2612,0.2625,0.2633,0.2644,0.2652,0.266,0.2665,0.2671,0.2674,0.2671,0.2672,0.2681,0.2686,0.2683,0.27,0.271,0.272,0.2728,0.2735,0.275,0.2801,0.2816,0.2661,0.2661,0.266,0,0,0.2597,0.2609,0.2615,0.2632,0.2644,0.2661,0.2658,0.2677,0.2694,0.2672,0.2693,0.2696,0.2691,0.2715,0.2724,0.2707,0.2783,0.2738,0.2744,0.2756,0.2806,0.2821,0.2835,0.2662,0.2662,0.2662,0,0,0.26,0.2612,0.2624,0.2641,0.2667,0.2675,0.2687,0.2702,0.2715,0.2733,0.2732,0.276,0.2756,0.2773,0.2778,0.2826,0.2822,0.2823,0.2881,0.2931,0.2944,0.2956,0.2988,0.3003,0.2828,0.2828,0.2829,0,0.2592,0.2611,0.263,0.2649,0.2668,0.2686,0.2706,0.2721,0.2737,0.2765,0.275,0.2797,0.2788,0.2844,0.2862,0.2846,0.2867,0.2846,0.2943,0.2955,0.2966,0.2996,0.3011,0.2832,0.2832,0.2832,0.2831,0,0.2604,0.2624,0.2637,0.2669,0.2691,0.2713,0.2743,0.2773,0.2792,0.2813,0.2873,0.2874,0.2912,0.2913,0.2901,0.2982,0.2969,0.2947,0.2923,0.2987,0.3013,0.3027,0.2838,0.2837,0.2835,0.2835,0,0,0.2571,0.2632,0.2636,0.266,0.2705,0.2724,0.2774,0.2828,0.2878,0.2903,0.2968,0.2998,0.3022,0.303,0.3031,0.307,0.316,0.3049,0.3049,0.3086,0.327,0.3201,0.3209,0.3161,0.3164,0.3167,0.3256,0,0.2573,0.261,0.2645,0.2687,0.2711,0.2763,0.281,0.2866,0.2915,0.298,0.3023,0.3072,0.306,0.3087,0.3135,0.3153,0.3202,0.3138,0.3197,0.3199,0.3135,0.3225,0.2959,0.3012,0.327,0.3272,0.3274,0,0.2568,0.2599,0.2639,0.2712,0.273,0.2765,0.2864,0.2911,0.3016,0.3056,0.3138,0.3164,0.3247,0.3209,0.3312,0.3276,0.329,0.3295,0.3298,0.322,0.3157,0.299,0.3028,0.3297,0.3295,0.3294,0.3292,0,0.2532,0.2593,0.2629,0.265,0.2734,0.2782,0.2838,0.2942,0.3001,0.3117,0.3172,0.3267,0.3318,0.3368,0.3393,0.3366,0.3485,0.3443,0.3398,0.3392,0.317,0.314,0.3522,0.3522,0.3521,0.3521,0.3521,0,0.2514,0.2541,0.262,0.264,0.2703,0.2773,0.2859,0.2936,0.3049,0.3116,0.3217,0.3281,0.3363,0.3432,0.3441,0.3474,0.3535,0.3436,0.3425,0.3187,0.3159,0.34,0.3385,0.3525,0.3524,0.3523,0.3523,0,0.2468,0.2515,0.2561,0.2654,0.2688,0.2738,0.2858,0.2915,0.304,0.3134,0.3172,0.3319,0.341,0.3476,0.3551,0.3531,0.3558,0.3547,0.3257,0.3211,0.3419,0.3406,0.3521,0.352,0.3518,0.3517,0.3517,0,0.2447,0.2469,0.2559,0.2585,0.2631,0.2713,0.2764,0.2894,0.2949,0.3137,0.3167,0.3313,0.3372,0.3487,0.3481,0.3507,0.3554,0.3262,0.3162,0.3449,0.3426,0.3416,0.3405,0.2895,0.2889,0.2884,0.288,0,0.2411,0.2448,0.2486,0.2539,0.2592,0.2642,0.2725,0.2758,0.2899,0.2981,0.3084,0.3156,0.3296,0.3211,0.327,0.3244,0.3238,0.3167,0.3558,0.2937,0.2865,0.2841,0.285,0.2838,0.2842,0.2845,0.2847,0.2849,0.2384,0.2396,0.2443,0.2479,0.2528,0.2541,0.2542,0.2614,0.267,0.2743,0.2897,0.2925,0.2985,0.295,0.2875,0.2835,0.3056,0.2904,0.2915,0.2933,0.2846,0.2776,0.2715,0.2718,0.2721,0.2724,0.2726,0,0.2322,0.2343,0.2375,0.2399,0.2386,0.2458,0.2483,0.2443,0.2433,0.2533,0.2595,0.2437,0.2408,0.2472,0.2354,0.2373,0.2323,0.2266,0.2161,0.2207,0.2248,0.2121,0.18,0.1797,0.1794,0.1791,0,0,0.2294,0.2279,0.2281,0.2232,0.2256,0.2202,0.2183,0.215,0.2168,0.2121,0.2121,0.231,0.2409,0.2065,0.2034,0.1887,0.2024,0.1819,0.257,0.2493,0.2529,0.2637,0.2499,0,0,0,0,0]},{"header":{"parameterUnit":"m.s-1","parameterCategory":2,"la1":30.2991,"la2":30.254,"lo1":-89.0895,"lo2":-89.0444,"dy":0.0017,"dx":0.0017,"nx":28,"ny":28,"refTime":"2023-11-03T21:00:00:Z","depth":"2","parameterNumber":3,"parameterNumberName":"V-component_of_CURRENTS"},"data":[0,0,0,0,0,0,0,0,0,0,0,0,0,0,0,0,0,0,0,0,0,0,0,0,0,0,0,0,0,0,0,0,0,0,0,0,0,0,0,0,0,0,0,0,0,0,0,0,0,0,0,0,0,0,0,0,0,0,0.0045,0.0044,0,0.0002,0.0001,0.0001,-0.0027,-0.0027,-0.0028,-0.0028,-0.0092,-0.0094,-0.0095,0,0,0,0,0,0,0,0,0,0,0,0,0,0.0055,0.0055,0.0045,0.0044,0.0044,0.0002,0.0001,0.0,-0.0027,-0.0027,-0.0028,-0.0028,-0.0092,-0.0094,-0.0096,0,0,0,0,0,0,0,0,0,0,0,0,0,0.0035,0.0056,0.0045,0.0025,0.0023,0.0002,0.0001,0.0,-0.0027,-0.0027,-0.0028,-0.0028,-0.0091,-0.0093,-0.0096,-0.0108,0,0,-0.0103,-0.0104,0,0,0,0,0,0,0,0,0.0036,0.0034,0.0029,0.0027,0.0024,-0.0007,-0.0019,-0.0037,-0.0027,-0.0009,-0.0028,-0.0028,-0.0065,-0.007,-0.0078,-0.0111,-0.0114,-0.0104,-0.0105,-0.0106,-0.0107,0,0,0,0,0,0,0,0.0037,0.0036,0.0027,0.0028,0.0026,0.0003,0.0,-0.0023,-0.0037,-0.0011,-0.0013,-0.0016,-0.0067,-0.0076,-0.008,-0.0115,-0.0104,-0.0106,-0.0107,-0.0108,-0.0161,-0.0161,0,0,0,0,0,0,0.0047,0.0037,0.0028,0.0025,0.0031,0.0003,-0.0,0.0003,-0.0036,-0.0042,-0.0016,-0.0017,-0.0072,-0.0077,-0.0083,-0.0088,-0.0106,-0.0108,-0.011,-0.0161,-0.0161,-0.0161,0,0,0,0,0,0,0.0048,0.0047,0.003,0.0031,0.0027,0.0004,0.0006,0.0002,-0.0008,-0.004,-0.0046,-0.002,-0.0072,-0.0079,-0.0097,-0.0091,-0.011,-0.0112,-0.0161,-0.0161,-0.0161,-0.0107,0,0,0,0,0,0,0.0048,0.0048,0.0051,0.0032,0.0027,0.0023,0.0006,0.0001,-0.0009,-0.0011,-0.0046,-0.0052,-0.0073,-0.0093,-0.0099,-0.0095,-0.0114,-0.0162,-0.0161,-0.0161,-0.0109,-0.0105,-0.0101,0,0,0,0,0,0.0049,0.006,0.0052,0.0051,0.0034,0.0023,0.0019,0.0,-0.0009,-0.001,-0.0032,-0.0051,-0.0097,-0.0095,-0.0102,-0.0098,-0.0162,-0.0161,-0.0161,-0.011,-0.0105,-0.0102,0,0,0,0,0,0,0.0069,0.0058,0.0048,0.0056,0.0042,0.0019,0.0018,0.0003,-0.0016,-0.0018,-0.0049,-0.0057,-0.0072,-0.0094,-0.0091,-0.0115,-0.0133,-0.0135,-0.0092,-0.0088,-0.0084,-0.0064,-0.0116,0,0,0,0,0,0.0075,0.008,0.0062,0.0068,0.0063,0.0039,0.0031,0.0019,0.0001,-0.0008,-0.0033,-0.0058,-0.0078,-0.0088,-0.0112,-0.0123,-0.0145,-0.0127,-0.0123,-0.012,-0.0109,-0.0142,-0.014,-0.0161,-0.0161,-0.0161,0,0,0.0083,0.0079,0.008,0.0072,0.0059,0.0062,0.0034,0.0028,0.0032,-0.0012,-0.0017,-0.0049,-0.0079,-0.0091,-0.01,-0.0107,-0.0126,-0.012,-0.0117,-0.0108,-0.0141,-0.0139,-0.0137,-0.0161,-0.0161,-0.0161,0,0,0.0106,0.0099,0.011,0.0104,0.0091,0.0078,0.0078,0.0055,0.0046,0.0035,0.0005,-0.0018,-0.0051,-0.0068,-0.0081,-0.0073,-0.0108,-0.0087,-0.0049,-0.008,-0.0079,-0.0077,-0.01,-0.0101,-0.0082,-0.0082,-0.0082,0,0.0117,0.0132,0.0111,0.0122,0.0126,0.009,0.0107,0.0092,0.0065,0.0064,0.0042,-0.0005,-0.0036,-0.0042,-0.0042,-0.0063,-0.0087,-0.006,-0.0075,-0.0074,-0.0074,-0.0097,-0.0099,-0.0079,-0.008,-0.008,-0.008,0,0.0148,0.016,0.0168,0.0174,0.0172,0.018,0.0162,0.0157,0.0137,0.012,0.0101,0.0054,0.0029,0.001,-0.0013,-0.0025,-0.0044,-0.0068,-0.0081,-0.0068,-0.0094,-0.0097,-0.0076,-0.0076,-0.0077,-0.0078,0,0,0.0181,0.019,0.0194,0.0212,0.0205,0.0212,0.0219,0.022,0.0235,0.0189,0.02,0.0148,0.0112,0.0094,0.0052,0.0023,-0.0,-0.0018,-0.0021,-0.0032,-0.0066,-0.0078,-0.0083,-0.0031,-0.0031,-0.0031,-0.0084,0,0.0216,0.0256,0.0247,0.0287,0.0309,0.029,0.0309,0.0302,0.0283,0.0281,0.0225,0.0211,0.0147,0.0134,0.0093,0.0028,-0.0007,0.0017,-0.0084,-0.0087,-0.0093,-0.0086,-0.0064,-0.0109,-0.0087,-0.0088,-0.0088,0,0.0255,0.028,0.0326,0.0363,0.0372,0.0388,0.0418,0.0426,0.0408,0.0395,0.0357,0.0306,0.0259,0.0198,0.0092,0.0108,0.0026,-0.0032,-0.0036,-0.0067,-0.0104,-0.0121,-0.0116,-0.0094,-0.0093,-0.0093,-0.0093,0,0.0303,0.034,0.0384,0.0395,0.0424,0.0447,0.0461,0.0461,0.0489,0.0461,0.047,0.0392,0.037,0.0252,0.0122,0.0105,0.0006,-0.0034,-0.0124,-0.0125,-0.0134,-0.0135,-0.0116,-0.0115,-0.0115,-0.0115,-0.0115,0,0.0353,0.0389,0.0412,0.0439,0.0506,0.0501,0.0564,0.0565,0.0582,0.0631,0.0528,0.0547,0.0381,0.0299,0.0159,0.0019,0.0029,-0.011,-0.0139,-0.0114,-0.0114,-0.0124,-0.0125,-0.0117,-0.0117,-0.0116,-0.0116,0,0.04,0.0411,0.047,0.0512,0.053,0.0579,0.0642,0.0689,0.0685,0.0744,0.0741,0.0673,0.0568,0.0393,0.0222,0.0087,-0.0059,-0.0117,-0.0072,-0.0094,-0.0181,-0.0178,-0.0221,-0.0222,-0.0223,-0.0224,-0.0224,0,0.0427,0.0461,0.0527,0.0572,0.0593,0.066,0.0716,0.0742,0.0801,0.0833,0.0876,0.079,0.0751,0.0488,0.024,-0.0003,-0.0047,-0.015,-0.0187,-0.0168,-0.0192,-0.0188,-0.0184,-0.0178,-0.0178,-0.0178,-0.0178,0,0.0485,0.0506,0.0556,0.0647,0.0713,0.0795,0.0874,0.0939,0.0986,0.1028,0.1079,0.1047,0.0809,0.0576,0.024,0.0069,-0.0112,-0.0159,-0.0149,-0.0152,-0.0131,-0.0153,-0.015,-0.0179,-0.0179,-0.0179,-0.0179,-0.0179,0.0531,0.0578,0.0644,0.073,0.0812,0.0919,0.0991,0.1081,0.1181,0.1248,0.1229,0.1176,0.0925,0.0493,0.0207,-0.011,-0.01,-0.0222,-0.022,-0.0219,-0.0202,-0.0183,-0.0237,-0.0237,-0.0237,-0.0238,-0.0238,0,0.0589,0.0638,0.0722,0.0827,0.0921,0.0956,0.1093,0.1161,0.1277,0.1336,0.1359,0.1109,0.085,0.0541,0.0085,-0.018,-0.0209,-0.0278,-0.0249,-0.0246,-0.0244,-0.0228,-0.027,-0.0271,-0.0272,-0.0273,0,0,0.0622,0.0707,0.0746,0.0897,0.0972,0.1095,0.1173,0.1269,0.1335,0.1377,0.1348,0.1299,0.0944,0.0611,0.0253,-0.001,-0.0075,-0.0072,-0.0016,0.0063,0.0068,-0.0182,-0.0149,0,0,0,0,0]}],[{"header":{"parameterUnit":"m.s-1","parameterCategory":2,"la1":30.2991,"la2":30.254,"lo1":-89.0895,"lo2":-89.0444,"dy":0.0017,"dx":0.0017,"nx":28,"ny":28,"refTime":"2023-11-03T21:00:00:Z","depth":"4","parameterNumber":2,"parameterNumberName":"U-component_of_CURRENTS"},"data":[0,0,0,0,0,0,0,0,0,0,0,0,0,0,0,0,0,0,0,0,0,0,0,0,0,0,0,0,0,0,0,0,0,0,0,0,0,0,0,0,0,0,0,0,0,0,0,0,0,0,0,0,0,0,0,0,0,0,0.1623,0.1624,0,0.1698,0.1698,0.1699,0.1757,0.1758,0.1759,0.176,0.1823,0.1824,0.1825,0,0,0,0,0,0,0,0,0,0,0,0,0,0.1516,0.1518,0.1623,0.1624,0.1625,0.1698,0.1698,0.1699,0.1757,0.1758,0.1759,0.176,0.1823,0.1824,0.1825,0,0,0,0,0,0,0,0,0,0,0,0,0,0.1571,0.1518,0.1623,0.1665,0.167,0.1697,0.1698,0.1699,0.1757,0.1758,0.1759,0.176,0.1822,0.1824,0.1825,0.1808,0,0,0.1829,0.183,0,0,0,0,0,0,0,0,0.1568,0.1575,0.1658,0.1662,0.1668,0.1722,0.1684,0.1736,0.1756,0.1721,0.176,0.1761,0.1789,0.1793,0.18,0.1811,0.1814,0.1829,0.183,0.1831,0.1831,0,0,0,0,0,0,0,0.1564,0.1572,0.1649,0.1659,0.1665,0.1676,0.1685,0.1694,0.1744,0.1724,0.1729,0.1742,0.1792,0.1799,0.1802,0.1815,0.1829,0.183,0.1831,0.1832,0.1925,0.1927,0,0,0,0,0,0,0.1561,0.1568,0.1647,0.1652,0.1623,0.1677,0.1687,0.1701,0.1745,0.1754,0.1741,0.1744,0.1796,0.1801,0.1805,0.1884,0.1831,0.1832,0.1833,0.1923,0.1925,0.1927,0,0,0,0,0,0,0.1558,0.1567,0.1644,0.1614,0.1625,0.1678,0.1693,0.1702,0.1749,0.1758,0.1766,0.1784,0.1797,0.1803,0.1849,0.1883,0.1832,0.1834,0.1921,0.1924,0.1926,0.1979,0,0,0,0,0,0,0.1554,0.1565,0.1589,0.1614,0.1627,0.1685,0.1692,0.1702,0.1754,0.176,0.1797,0.1802,0.1799,0.1847,0.185,0.1884,0.1835,0.1919,0.1923,0.1926,0.1975,0.1983,0.199,0,0,0,0,0,0.155,0.1572,0.159,0.16,0.1653,0.1687,0.1695,0.1733,0.1755,0.178,0.1809,0.1803,0.1869,0.1849,0.1853,0.1887,0.1918,0.1922,0.1925,0.1972,0.1982,0.199,0,0,0,0,0,0,0.1539,0.1581,0.1601,0.1636,0.1672,0.1698,0.1731,0.1754,0.1796,0.1815,0.182,0.1827,0.188,0.1878,0.1856,0.1925,0.1894,0.1898,0.1928,0.1937,0.1944,0.1937,0.1836,0,0,0,0,0,0.1547,0.1579,0.1614,0.1648,0.1669,0.1707,0.1733,0.176,0.1793,0.1816,0.1839,0.1867,0.1891,0.1911,0.1928,0.1963,0.1967,0.199,0.1997,0.2003,0.2001,0.2044,0.2054,0.1939,0.1939,0.1939,0,0,0.1552,0.1582,0.1601,0.1649,0.1682,0.1714,0.1727,0.1779,0.181,0.1813,0.1873,0.1895,0.1907,0.1949,0.1973,0.1957,0.2041,0.2008,0.2013,0.2007,0.2049,0.206,0.207,0.1942,0.1942,0.1941,0,0,0.1567,0.1608,0.1636,0.1668,0.1726,0.1747,0.177,0.1818,0.1851,0.1902,0.1915,0.1958,0.1997,0.201,0.2019,0.2077,0.2078,0.2093,0.2125,0.2167,0.2176,0.2185,0.2211,0.2222,0.2097,0.2097,0.2097,0,0.1575,0.1613,0.1651,0.1684,0.1716,0.1765,0.1798,0.1832,0.1891,0.1918,0.1934,0.2009,0.2021,0.2065,0.2088,0.2092,0.2115,0.2089,0.2176,0.2184,0.2192,0.2217,0.2228,0.21,0.21,0.21,0.2099,0,0.16,0.1642,0.1665,0.1721,0.1758,0.18,0.1846,0.1895,0.1944,0.1973,0.2045,0.207,0.2115,0.213,0.2127,0.219,0.2189,0.218,0.215,0.2206,0.223,0.224,0.2105,0.2103,0.2103,0.2102,0,0,0.158,0.1665,0.1676,0.1706,0.1784,0.181,0.1875,0.1933,0.1981,0.2043,0.21,0.2149,0.2179,0.2192,0.2205,0.2237,0.2312,0.2239,0.2239,0.2259,0.2409,0.227,0.2267,0.2329,0.2331,0.2333,0.2405,0,0.1591,0.1649,0.1693,0.1753,0.1784,0.1849,0.1899,0.1962,0.2026,0.2092,0.2137,0.2196,0.2198,0.2236,0.2273,0.2305,0.2341,0.2293,0.2356,0.2357,0.2222,0.2275,0.2339,0.2413,0.2415,0.2417,0.2418,0,0.1593,0.1633,0.1692,0.1766,0.1788,0.1836,0.193,0.1985,0.2081,0.2135,0.221,0.2248,0.2316,0.2307,0.2397,0.2374,0.2399,0.2414,0.2417,0.2271,0.2236,0.2345,0.2436,0.2434,0.2433,0.2432,0.2431,0,0.1542,0.1627,0.1673,0.1701,0.1795,0.1844,0.1906,0.2006,0.2059,0.2177,0.2231,0.2313,0.2374,0.2421,0.2468,0.2448,0.2553,0.2526,0.2421,0.2412,0.2491,0.2481,0.2585,0.2584,0.2584,0.2584,0.2584,0,0.1516,0.1555,0.1662,0.1684,0.1748,0.1828,0.1913,0.1988,0.2098,0.2158,0.2259,0.2314,0.2412,0.2478,0.2499,0.2494,0.2589,0.2429,0.2422,0.2513,0.2505,0.2499,0.2488,0.2587,0.2586,0.2586,0.2585,0,0.1449,0.1521,0.1577,0.1686,0.1728,0.1778,0.1913,0.1963,0.2088,0.2175,0.2215,0.2346,0.2433,0.2505,0.2587,0.2524,0.2535,0.2511,0.2614,0.2612,0.2355,0.2346,0.2383,0.2378,0.2375,0.2372,0.2369,0,0.1415,0.1441,0.1565,0.1603,0.1662,0.1756,0.1814,0.1948,0.2002,0.2172,0.2194,0.2328,0.24,0.2405,0.2496,0.2524,0.2498,0.2477,0.2392,0.2345,0.2336,0.2333,0.2329,0.2363,0.2362,0.2361,0.236,0,0.1344,0.1407,0.1454,0.1538,0.1608,0.1671,0.1769,0.1791,0.1938,0.2066,0.212,0.2163,0.226,0.2318,0.2366,0.2379,0.2469,0.2439,0.2445,0.2365,0.2322,0.2316,0.2316,0.2348,0.235,0.2351,0.2352,0,0.1296,0.1312,0.1389,0.1452,0.153,0.1556,0.1622,0.1684,0.1753,0.1931,0.1952,0.2101,0.2238,0.2246,0.2291,0.2294,0.225,0.2156,0.2176,0.2191,0.2094,0.201,0.1936,0,0,0,0,0,0.1235,0.1246,0.1294,0.1346,0.1417,0.1469,0.1573,0.164,0.1781,0.1767,0.1851,0.193,0.1993,0.2078,0.2044,0.221,0.226,0.2158,0.2162,0.2278,0.2293,0.2196,0,0,0,0,0,0,0.1193,0.1235,0.1256,0.1248,0.1267,0.1329,0.139,0.1486,0.149,0.1643,0.1695,0.1813,0.1914,0.1999,0.201,0.2034,0.1994,0.2258,0.2253,0.227,0.2283,0.2295,0.2201,0,0,0,0,0]},{"header":{"parameterUnit":"m.s-1","parameterCategory":2,"la1":30.2991,"la2":30.254,"lo1":-89.0895,"lo2":-89.0444,"dy":0.0017,"dx":0.0017,"nx":28,"ny":28,"refTime":"2023-11-03T21:00:00:Z","depth":"4","parameterNumber":3,"parameterNumberName":"V-component_of_CURRENTS"},"data":[0,0,0,0,0,0,0,0,0,0,0,0,0,0,0,0,0,0,0,0,0,0,0,0,0,0,0,0,0,0,0,0,0,0,0,0,0,0,0,0,0,0,0,0,0,0,0,0,0,0,0,0,0,0,0,0,0,0,0.0154,0.0154,0,0.0119,0.0118,0.0118,0.0102,0.0102,0.0102,0.0102,0.0063,0.0062,0.0061,0,0,0,0,0,0,0,0,0,0,0,0,0,0.017,0.017,0.0154,0.0154,0.0153,0.0119,0.0118,0.0118,0.0102,0.0102,0.0102,0.0102,0.0063,0.0062,0.0061,0,0,0,0,0,0,0,0,0,0,0,0,0,0.0151,0.017,0.0154,0.0141,0.014,0.0119,0.0118,0.0118,0.0102,0.0102,0.0102,0.0102,0.0064,0.0062,0.006,0.0048,0,0,0.0055,0.0055,0,0,0,0,0,0,0,0,0.0152,0.0151,0.0144,0.0142,0.0141,0.0115,0.0109,0.0094,0.0102,0.0116,0.0102,0.0102,0.008,0.0077,0.007,0.0046,0.0044,0.0055,0.0054,0.0053,0.0053,0,0,0,0,0,0,0,0.0154,0.0152,0.014,0.0143,0.0141,0.0125,0.0122,0.0106,0.0098,0.0115,0.0114,0.011,0.0079,0.0072,0.0069,0.0044,0.0055,0.0054,0.0053,0.0052,0.0018,0.0018,0,0,0,0,0,0,0.0161,0.0153,0.0141,0.0139,0.0147,0.0124,0.0122,0.0123,0.0098,0.0094,0.011,0.011,0.0074,0.0071,0.0067,0.0074,0.0054,0.0052,0.0051,0.0017,0.0018,0.0018,0,0,0,0,0,0,0.0161,0.016,0.0142,0.0145,0.0142,0.0124,0.0125,0.0122,0.0117,0.0094,0.0091,0.0109,0.0074,0.007,0.006,0.0071,0.0051,0.005,0.0017,0.0017,0.0018,0.0072,0,0,0,0,0,0,0.0162,0.0161,0.0164,0.0146,0.0142,0.0135,0.0125,0.0121,0.0115,0.0114,0.0092,0.0088,0.0074,0.0063,0.0059,0.0069,0.0048,0.0017,0.0017,0.0018,0.007,0.0074,0.0077,0,0,0,0,0,0.0163,0.017,0.0165,0.0163,0.0148,0.0135,0.0131,0.0119,0.0115,0.0114,0.0103,0.0089,0.0061,0.0062,0.0057,0.0066,0.0017,0.0017,0.0018,0.0068,0.0073,0.0077,0,0,0,0,0,0,0.0179,0.0168,0.0163,0.0166,0.0153,0.0133,0.0132,0.0122,0.0111,0.0112,0.0091,0.0086,0.0081,0.0063,0.0065,0.0055,0.0036,0.0036,0.0077,0.0081,0.0084,0.0102,0.0047,0,0,0,0,0,0.0184,0.0188,0.0171,0.0174,0.017,0.0151,0.0145,0.0136,0.0123,0.0118,0.0102,0.0087,0.0076,0.0072,0.0055,0.0051,0.0028,0.0052,0.0056,0.0059,0.0069,0.0042,0.0045,0.0018,0.0018,0.0018,0,0,0.019,0.0186,0.0187,0.0178,0.0167,0.0169,0.0148,0.0142,0.0148,0.0115,0.0118,0.0097,0.0077,0.0074,0.007,0.0063,0.0052,0.0059,0.0063,0.0071,0.0043,0.0046,0.0048,0.0018,0.0018,0.0018,0,0,0.0206,0.0202,0.021,0.0204,0.0192,0.0183,0.0183,0.0164,0.0161,0.0157,0.0138,0.0128,0.0105,0.0098,0.0092,0.0104,0.007,0.0093,0.013,0.0104,0.0106,0.0108,0.0075,0.0073,0.0098,0.0098,0.0098,0,0.0214,0.0225,0.0209,0.0215,0.022,0.0193,0.0206,0.0197,0.0178,0.0183,0.0165,0.0142,0.0122,0.0129,0.0132,0.0115,0.0088,0.0118,0.011,0.0111,0.0112,0.0078,0.0075,0.0101,0.01,0.01,0.01,0,0.0234,0.0246,0.0251,0.0255,0.0255,0.0261,0.025,0.025,0.0241,0.0231,0.0229,0.0198,0.0187,0.0176,0.0159,0.0158,0.0133,0.0116,0.0103,0.0118,0.0081,0.0077,0.0104,0.0103,0.0103,0.0102,0,0,0.0249,0.0264,0.0267,0.0286,0.0281,0.0287,0.03,0.0307,0.0325,0.0296,0.0313,0.0287,0.0264,0.0254,0.0226,0.0205,0.0182,0.0167,0.0164,0.0141,0.0116,0.009,0.0084,0.0161,0.0161,0.016,0.0085,0,0.0273,0.0305,0.0303,0.034,0.0359,0.0352,0.0372,0.0374,0.0366,0.0372,0.0341,0.0339,0.0296,0.0292,0.0263,0.0204,0.0176,0.0204,0.0098,0.0095,0.0077,0.008,0.016,0.0082,0.0081,0.0081,0.008,0,0.0295,0.0319,0.036,0.0402,0.0411,0.0428,0.0464,0.0479,0.0476,0.047,0.0454,0.0417,0.0389,0.0345,0.0255,0.0272,0.0201,0.0149,0.0144,0.0103,0.0064,0.0063,0.0073,0.0074,0.0074,0.0075,0.0075,0,0.0324,0.0362,0.0404,0.0415,0.0451,0.0477,0.0499,0.051,0.0539,0.0531,0.0537,0.0487,0.0467,0.0376,0.026,0.0256,0.015,0.013,0.0039,0.0036,0.0058,0.0057,0.0064,0.0064,0.0064,0.0065,0.0065,0,0.0353,0.0389,0.0425,0.0449,0.0513,0.0522,0.0584,0.0595,0.0617,0.065,0.0592,0.0591,0.0472,0.0391,0.028,0.0148,0.0161,0.0048,0.0018,0.008,0.0082,0.0054,0.0054,0.0062,0.0062,0.0063,0.0063,0,0.0376,0.0396,0.0453,0.0505,0.0528,0.0576,0.0646,0.0686,0.0697,0.0734,0.0734,0.0671,0.0563,0.0429,0.0279,0.018,0.0053,0.0,0.0075,0.005,-0.005,-0.0046,-0.0102,-0.0103,-0.0104,-0.0106,-0.0106,0,0.0389,0.042,0.0496,0.0537,0.0564,0.0636,0.0686,0.0726,0.0765,0.0778,0.0793,0.0707,0.0641,0.0418,0.027,0.0055,0.0019,-0.0052,-0.0048,-0.0041,-0.0065,-0.006,-0.0055,-0.0108,-0.0109,-0.0109,-0.0109,0,0.0418,0.0446,0.0492,0.0576,0.0638,0.0716,0.0785,0.0816,0.0855,0.0867,0.0837,0.0719,0.0595,0.0418,0.0248,0.0093,-0.0006,-0.0065,-0.0064,-0.0061,-0.005,-0.0071,-0.0065,-0.0114,-0.0113,-0.0113,-0.0112,0,0.0441,0.0475,0.0535,0.0608,0.0691,0.0762,0.0802,0.0841,0.0881,0.0884,0.0871,0.0737,0.0669,0.0437,0.0282,0.0126,0.0083,0.0027,0.0023,0.0025,0.008,0.0113,0.0079,0,0,0,0,0,0.0458,0.0492,0.056,0.0637,0.072,0.0768,0.0852,0.0882,0.0912,0.0896,0.0887,0.0768,0.0541,0.045,0.029,0.0245,0.0046,0.0049,-0.0022,-0.0137,-0.0132,-0.0093,0,0,0,0,0,0,0.0467,0.0528,0.0555,0.0646,0.0698,0.0792,0.0845,0.0869,0.0863,0.0868,0.0757,0.0712,0.0497,0.0629,0.028,0.0235,0.0163,-0.0049,-0.0053,-0.014,-0.0135,-0.0131,-0.0089,0,0,0,0,0]}]]